Weather History for KPRN - March, 2012

Change the Weather History Date:

Saturday, March 31, 2012

  Actual Average Record
Temperature  
Mean Temperature 71 °F -  
Max Temperature 78 °F 74 °F 88 °F (1954)
Min Temperature 63 °F 48 °F 31 °F (1987)
Cooling Degree Days 6    
Growing Degree Days 21 (Base 50)    
Moisture  
Dew Point 66 °F    
Average Humidity 91    
Maximum Humidity 100    
Minimum Humidity 68    
Precipitation  
Precipitation 0.18 in - - ()
Sea Level Pressure  
Sea Level Pressure 29.90 in    
Wind  
Wind Speed 4 mph (SW)    
Max Wind Speed 10 mph    
Max Gust Speed -    
Visibility 8 miles    
Events Rain , Thunderstorm    
Averages and records for this station are not official NWS values.
T = Trace of Precipitation, MM = Missing Value Source: NWS Daily Summary

Daily Weather History Graph

Daily Weather History Graph

Search for Another Location

Airport or City:

Trip Planner

Search our weather history database for the weather conditions in past years. The results will help you decide how hot, cold, wet, or windy it might be!

Date:

Astronomy

Mar. 31, 2012 Rise Set
Actual Time 6:35 AM CDT 7:05 PM CDT
Civil Twilight 6:11 AM CDT 7:30 PM CDT
Nautical Twilight 5:42 AM CDT 7:59 PM CDT
Astronomical Twilight 5:13 AM CDT 8:28 PM CDT
Moon 12:55 PM CDT (3/31) 2:08 AM CDT (3/31)
Length of Visible Light 13h 19m
Length of Day
12h 30m
First Quarter, 59% of the Moon is Illuminated
Mar 31
First Quarter
Apr 6
Full
Apr 13
Last Quarter
Apr 21
New
Apr 29
First Quarter

Hourly Weather History & Observations

Time (CDT) Temp. Dew Point Humidity Pressure Visibility Wind Dir Wind Speed Gust Speed Precip Events Conditions
12:14 AM 66.9 °F 66.0 °F 97% 29.90 in 10.0 mi Calm Calm - 0.00 in   Mostly Cloudy
12:56 AM 66.9 °F 66.0 °F 97% 29.89 in 10.0 mi South 4.6 mph - 0.00 in   Overcast
1:56 AM 66.9 °F 66.0 °F 97% 29.88 in 8.0 mi SSW 4.6 mph - N/A   Overcast
2:56 AM 66.9 °F 66.0 °F 97% 29.88 in 2.0 mi SSW 3.5 mph - N/A   Overcast
3:03 AM 66.9 °F 66.0 °F 97% 29.89 in 1.2 mi SSW 4.6 mph - N/A   Overcast
3:54 AM 66.9 °F 66.0 °F 97% 29.88 in 0.8 mi South 5.8 mph - N/A Thunderstorm Overcast
3:56 AM 66.9 °F 66.0 °F 97% 29.87 in 0.8 mi South 5.8 mph - N/A Thunderstorm Overcast
4:27 AM 66.9 °F 66.0 °F 97% 29.88 in 2.0 mi SW 3.5 mph - 0.00 in Rain , Thunderstorm Light Thunderstorms and Rain
4:34 AM 66.0 °F 64.9 °F 96% 29.88 in 10.0 mi SSW 4.6 mph - 0.00 in Thunderstorm Thunderstorm
4:56 AM 66.9 °F 66.9 °F 100% 29.87 in 6.0 mi South 5.8 mph - 0.00 in Thunderstorm Overcast
5:20 AM 66.9 °F 66.0 °F 97% 29.88 in 7.0 mi SW 6.9 mph - N/A   Overcast
5:31 AM 66.9 °F 66.0 °F 97% 29.88 in 8.0 mi SW 6.9 mph - N/A Thunderstorm Thunderstorm
5:43 AM 66.9 °F 66.0 °F 97% 29.89 in 9.0 mi SW 5.8 mph - 0.00 in Rain , Thunderstorm Light Thunderstorms and Rain
5:52 AM 66.9 °F 66.0 °F 97% 29.89 in 8.0 mi SW 4.6 mph - 0.00 in Rain Light Rain
5:56 AM 66.9 °F 66.0 °F 97% 29.88 in 8.0 mi SW 4.6 mph - 0.00 in Rain Light Rain
6:09 AM 66.9 °F 66.0 °F 97% 29.89 in 9.0 mi SW 4.6 mph - 0.00 in   Mostly Cloudy
6:24 AM 66.9 °F 66.0 °F 97% 29.89 in 8.0 mi SW 4.6 mph - 0.00 in   Mostly Cloudy
6:48 AM 68.0 °F 66.0 °F 93% 29.90 in 9.0 mi SW 5.8 mph - 0.00 in Thunderstorm Thunderstorm
6:56 AM 68.0 °F 66.0 °F 93% 29.89 in 8.0 mi WSW 4.6 mph - 0.00 in Thunderstorm Thunderstorm
6:58 AM 68.0 °F 66.0 °F 93% 29.90 in 8.0 mi WSW 4.6 mph - N/A   Mostly Cloudy
7:19 AM 68.0 °F 66.0 °F 93% 29.91 in 9.0 mi SW 4.6 mph - N/A   Scattered Clouds
7:35 AM 68.0 °F 66.0 °F 93% 29.92 in 7.0 mi SW 3.5 mph - N/A   Mostly Cloudy
7:42 AM 68.0 °F 66.0 °F 93% 29.92 in 1.8 mi WSW 4.6 mph - 0.07 in Rain Heavy Rain
7:53 AM 68.0 °F 66.0 °F 93% 29.91 in 3.0 mi SW 3.5 mph - 0.11 in Rain , Thunderstorm Light Thunderstorms and Rain
7:56 AM 68.0 °F 66.0 °F 93% 29.91 in 4.0 mi SW 3.5 mph - 0.11 in Rain , Thunderstorm Light Thunderstorms and Rain
8:03 AM 68.0 °F 66.0 °F 93% 29.92 in 6.0 mi SW 3.5 mph - 0.00 in Rain , Thunderstorm Light Thunderstorms and Rain
8:29 AM 68.0 °F 66.0 °F 93% 29.92 in 9.0 mi WSW 5.8 mph - 0.00 in   Mostly Cloudy
8:38 AM 68.0 °F 66.0 °F 93% 29.92 in 10.0 mi WSW 5.8 mph - 0.00 in   Scattered Clouds
8:43 AM 68.0 °F 64.9 °F 90% 29.92 in 10.0 mi West 4.6 mph - 0.00 in   Mostly Cloudy
8:56 AM 68.0 °F 66.0 °F 93% 29.91 in 10.0 mi West 4.6 mph - 0.00 in   Mostly Cloudy
9:29 AM 68.0 °F 64.9 °F 90% 29.92 in 2.5 mi West 5.8 mph - 0.06 in Rain Heavy Rain
9:43 AM 68.0 °F 66.0 °F 93% 29.93 in 9.0 mi West 3.5 mph - 0.07 in Rain Light Rain
9:56 AM 68.0 °F 66.0 °F 93% 29.92 in 10.0 mi West 4.6 mph - 0.07 in   Overcast
10:26 AM 69.1 °F 66.9 °F 93% 29.94 in 10.0 mi SW 3.5 mph - N/A   Scattered Clouds
10:39 AM 69.1 °F 66.9 °F 93% 29.94 in 10.0 mi WSW 3.5 mph - N/A   Mostly Cloudy
10:56 AM 69.1 °F 66.9 °F 93% 29.93 in 9.0 mi Calm Calm - N/A   Mostly Cloudy
11:06 AM 69.1 °F 66.9 °F 93% 29.94 in 9.0 mi SW 3.5 mph - 0.00 in Rain Light Rain
11:13 AM 70.0 °F 66.9 °F 90% 29.94 in 10.0 mi Variable 3.5 mph - 0.00 in   Mostly Cloudy
11:22 AM 70.0 °F 66.9 °F 90% 29.94 in 10.0 mi SW 3.5 mph - 0.00 in   Mostly Cloudy
11:49 AM 66.9 °F 64.9 °F 93% 29.93 in 10.0 mi SE 5.8 mph - 0.00 in   Overcast
11:56 AM 66.9 °F 64.9 °F 93% 29.92 in 10.0 mi ESE 5.8 mph - 0.00 in   Overcast
12:21 PM 68.0 °F 64.9 °F 90% 29.93 in 10.0 mi SE 4.6 mph - N/A   Mostly Cloudy
12:31 PM 69.1 °F 66.0 °F 90% 29.92 in 10.0 mi SSE 4.6 mph - N/A   Mostly Cloudy
12:49 PM 68.0 °F 64.9 °F 90% 29.92 in 10.0 mi South 4.6 mph - N/A   Mostly Cloudy
12:56 PM 70.0 °F 66.0 °F 87% 29.91 in 10.0 mi Variable 3.5 mph - N/A   Scattered Clouds
1:10 PM 71.1 °F 66.0 °F 84% 29.91 in 10.0 mi Variable 4.6 mph - N/A   Mostly Cloudy
1:23 PM 72.0 °F 66.9 °F 84% 29.91 in 10.0 mi South 4.6 mph - N/A   Scattered Clouds
1:56 PM 73.0 °F 66.9 °F 81% 29.88 in 10.0 mi Variable 4.6 mph - 0.00 in   Clear
2:17 PM 73.0 °F 66.9 °F 81% 29.88 in 10.0 mi East 10.4 mph - N/A   Mostly Cloudy
2:56 PM 75.9 °F 68.0 °F 76% 29.86 in 10.0 mi ESE 5.8 mph - N/A   Mostly Cloudy
3:19 PM 75.9 °F 66.9 °F 74% 29.86 in 10.0 mi Variable 5.8 mph - N/A   Scattered Clouds
3:56 PM 77.0 °F 66.0 °F 69% 29.84 in 10.0 mi Variable 4.6 mph - N/A   Partly Cloudy
4:56 PM 78.1 °F 66.9 °F 68% 29.83 in 10.0 mi Variable 4.6 mph - N/A   Clear
5:56 PM 77.0 °F 66.9 °F 71% 29.84 in 10.0 mi SW 3.5 mph - N/A   Clear
6:56 PM 75.0 °F 64.0 °F 69% 29.84 in 10.0 mi Calm Calm - N/A   Clear
7:56 PM 70.0 °F 66.0 °F 87% 29.87 in 10.0 mi Calm Calm - N/A   Clear
8:56 PM 66.9 °F 64.0 °F 90% 29.90 in 9.0 mi Calm Calm - N/A   Clear
9:56 PM 66.0 °F 63.0 °F 90% 29.93 in 10.0 mi Calm Calm - 0.00 in   Clear
10:48 PM 64.9 °F 63.0 °F 93% 29.95 in 9.0 mi Calm Calm - N/A Thunderstorm Thunderstorm
10:56 PM 64.0 °F 62.1 °F 93% 29.94 in 10.0 mi Calm Calm - N/A Thunderstorm Thunderstorm
11:03 PM 64.0 °F 62.1 °F 93% 29.95 in 8.0 mi NNE 3.5 mph - N/A   Clear
11:56 PM 63.0 °F 61.0 °F 93% 29.90 in 9.0 mi NNE 3.5 mph - N/A   Clear